Yosemite National Park, CA

11:43 PM PDT on July 24, 2016 (GMT -0700)
MesoWest | | Change Station

Elev 4036 ft 37.73 °N, 119.56 °W | Updated 33 minutes ago

Overcast
Overcast
74 °F
Feels Like 76 °F
N
3
Wind Variable Wind from NNW
Gusts 8.0 mph

Today
High -- | Low -- °F
--% Chance of Precip.
Yesterday
High -- | Low -- °F
Precip. -- in
Pressure 29.94 in
Visibility 10.0 miles
Clouds Mostly Cloudy 6000 ft
Overcast 7500 ft
Heat Index 76 °F
Dew Point 39 °F
Humidity 28%
Rainfall in
Snow Depth Not available.
5:55 AM 8:13 PM
Waning Gibbous, 69% visible
METAR KO22 250635Z AUTO 04003KT 10SM BKN060 OVC075 19/04 A2994 RMK AO1
Pressure 29.94 in
Visibility 10.0 miles
Clouds Mostly Cloudy 6000 ft
Overcast 7500 ft
Heat Index 76 °F
Dew Point 39 °F
Humidity 28%
Rainfall in
Snow Depth Not available.
5:55 AM 8:13 PM
Waning Gibbous, 69% visible
METAR KO22 250635Z AUTO 04003KT 10SM BKN060 OVC075 19/04 A2994 RMK AO1

10-Day Weather Forecast

Almanac

Astronomy

Jul. 24, 2016 Rise Set
Actual Time
Civil Twilight
Nautical Twilight
Astronomical Twilight
Moon
Length of Visible Light
Length of Day
Tomorrow will be .
, % of the Moon is Illuminated

Today's Extremes

State Highs State Lows

Community

WunderPhotos

Upload Photos

1,927,275 photos uploaded!

WunderBlog® & News

Nearby

Air Quality

  Air Quality AQ Index Pollutant
Not available.

Snow Depth

Station Depth Elevation

Earthquake Activity

City Distance Mag. Time & Date
Minimum magnitude displayed is 2.5.

Coastal Water Temperatures

Place Temperature

Stations

Nearby Weather Stations

Station Location Temp. Windchill Dew Point Humidity Wind Precip. Elev Updated Type
                   

Watches & Warnings

There are currently no watches in effect.